CZ-6A DEB, 56630

Orbit data source: Space-Track

CZ-6A DEB, 56630 is space debris in SSO originally from a launch on Fri, 11 Nov 2022 UTC launched from the Taiyaun Space Center, China (TSC). Debris objects in space refer to the collection of defunct objects orbiting the Earth. Examples of debris include non-operational satellites, rocket bodies, and fragments generated from explosions, collisions, or faulty payload assembly.

Loading next visibility...
Identifier
56630, 2022-151AFE
Orbit
SSO
Country
Flag of CNCN / PRC
Related business
Manufacturer
SAST
Mission
Spacecraft
Bus & Motor
Unknown
Mass
Unknown
Launch date (UTC)
2022-11-11 (4 years ago)
Launch vehicle
Unknown
Launch site
Taiyaun Space Center, China (TSC)
Object type
Payload
Rocket body
Debris
Shape & HBR
Unknown shape, 0.1 m
Radar Cross Section
Small (<0.1 m²)

Expand to show TLE details & history
Last TLE update: 6 days ago

TLE from 6 days ago
0 CZ-6A DEB
1 56630U 22151AFE 26167.71139963  .00001217  00000-0  66300-3 0  9991
2 56630  98.8420 168.5722 0052112 342.8475  17.0935 14.13394115161889
Epoch: 2026-06-16T17:04Z
TLE epoch observation values (Epoch: 2026-06-16T17:04:24.928Z)
Latitude
0.00004°
Longitude
7.48882°
Altitude
814.699 km
Speed
7.464 km/s
True Right ascension
11h 14m 17s
True Declination
0° 00' 00"
Sunlit
Object was in daylight at epoch
Visualization orbit readout
Latitude
Unknown
Longitude
Unknown
Altitude
Unknown
Speed
Unknown
Apparent Right ascension
Unknown
Apparent Declination
Unknown
Sunlit
N/A
Visualization observer readout
Local Sidereal Time
21:54:28
Azimuth
Unknown
Elevation
Unknown
Doppler factor
Unknown
Orbital elements
Apogee altitude
882.595 km
Perigee altitude
807.313 km
Semi-major axis
7,223.091 km
Eccentricity
0.00521
Inclination
98.842°
RAAN
168.5722°
Arg. of periapsis
342.8475°
True anomaly
17.27012°
Mean anomaly
17.0935°
Eccentric anomaly
17.1817°
Mean motion
3.53556 °/min
Orbital period
101.82 mins
BSTAR
0.000663
Loading maneuver chart data...
Computing Atmospheric mass density...
Loading historical data...
Loading historical data...
Loading historical data...
Loading historical data...
Loading historical data...
Loading historical data...
Loading historical data...

Documentation

Showing up to 5 results
|